Regional Weather Roundup
Issued by NWS State College, PA

Home | Current Version | Previous Version | Text Only | Print | Product List | Glossary Off
Versions: 1 2 3 4 5 6 7 8 9 10 11 12 13 14 15 16 17 18 19 20 21 22 23 24 25 26 27 28 29 30 31 32 33 34 35 36 37 38 39 40 41 42 43 44 45 46 47 48 49 50

000
ASUS41 KCTP 230210
RWRCTP

REGIONAL WEATHER ROUNDUP
NATIONAL WEATHER SERVICE STATE COLLEGE PA
1000 PM EDT FRI SEP 22 2017

Note: "fair" indicates few or no clouds below 12,000 feet with no
significant weather and/or obstructions to visibility.

* = STATION THAT DOES NOT REPORT PRECIPITATION /E.G. RAIN...SNOW...ETC/
    THUNDER OR FOG.

PAZ002>004-007>009-013>016-020>023-029>032-230300-
WESTERN PENNSYLVANIA

CITY           SKY/WX    TMP DP  RH WIND       PRES   REMARKS
ERIE           CLEAR     67  58  72 CALM      30.10S
MEADVILLE      CLEAR     68  55  63 NE3       30.13S
FRANKLIN*      CLEAR     63  57  82 CALM      30.13F
NEW CASTLE     FAIR      68  59  73 NE3       30.11F
BEAVER COUNTY  NOT AVBL
BUTLER*        PTCLDY    66  56  70 CALM      30.11S
PITTSBURGH INT MOCLDY    75  57  53 N3        30.10S
PITTSBURGH     CLEAR     73  53  49 VRB3      30.09S
INDIANA*       CLEAR     63  59  88 CALM      30.13S
LATROBE        CLEAR     64  64 100 CALM      30.11R
WASHINGTON CO* CLEAR     61  57  88 CALM      30.10S
$$

PAZ004>006-010>012-017>019-024>028-033>037-041-042-045-046-049>053-230300-
CENTRAL PENNSYLVANIA

CITY           SKY/WX    TMP DP  RH WIND       PRES   REMARKS
BRADFORD       CLEAR     58  55  90 CALM      30.15S
DUBOIS         CLEAR     67  52  58 N3        30.13R
CLEARFIELD     CLEAR     67  53  61 NW3       30.12R
JOHNSTOWN      CLEAR     70  50  49 N3        30.14R
ALTOONA        CLEAR     63  57  81 CALM      30.10R
STATE COLLEGE  NOT AVBL
WILLIAMSPORT   CLEAR     64  56  75 CALM      30.06R
SELINSGROVE    PTCLDY    57  56  96 CALM      30.06R
FT INDIANTOWN  CLEAR     62  55  76 S3        30.03S
CAPITAL CITY   CLEAR     65  58  78 W3        30.03R
HARRISBURG     PTCLDY    65  60  84 CALM      30.02R
YORK           CLOUDY    59  59 100 CALM      30.03R
$$

PAZ038>040-043-044-047-048-054-055-060>062-067>071-230300-
EASTERN PENNSYLVANIA

CITY           SKY/WX    TMP DP  RH WIND       PRES   REMARKS
SCRANTON       CLEAR     68  48  48 E7        30.07R
MOUNT POCONO   CLEAR     64  45  49 N7        30.09R
ALLENTOWN      CLEAR     70  51  51 N3        30.02R
QUAKERTOWN*    CLEAR     64  57  77 CALM      30.02S
READING        CLEAR     66  60  81 CALM      30.02R
LANCASTER      CLOUDY    69  59  70 NW5       30.02S
COATESVILLE    PTCLDY    72  52  49 N6        30.04R
POTTSTOWN      CLEAR     68  52  56 NW5       30.02S
BLUE BELL      CLEAR     63  59  88 CALM      30.01S
DOYLESTOWN     CLEAR     70  54  56 NE3       30.00R
WILLOW GROVE   NOT AVBL
NORTH PHILA    MOCLDY    75  55  49 N8        30.00R
PHILADELPHIA   MOCLDY    73  56  54 NW7       29.98R
$$



USA.gov is the U.S. government's official web portal to all federal, state and local government web resources and services.